Wind_Speed
17 17 17 17 18 18 18 18 19 18 18 18 17 18 18 17 17 16 15 16 16 16 15 13 13 14 13 12 10 10 10 12 12 8 8 12 19 24 25 23 21 21 23 26 30 30 30 27 25 23 21 19 17 15 14 14 12 11 9 8 9 8 9 9 8 7 6 10 13 10 10 11 12 12 12 12 11 11 10 10 10 13 15 14 13 19 23 25
17 17 18 18 18 18 18 19 19 19 19 18 18 18 18 18 18 17 16 16 16 16 16 15 14 13 14 13 11 11 11 11 11 6 7 13 19 24 26 25 23 21 22 25 28 28 28 27 26 25 22 20 17 17 16 15 13 11 8 7 10 11 11 9 7 6 6 10 9 7 9 10 12 12 10 12 13 13 13 13 15 18 17 15 17 22 24 25
17 17 17 18 18 18 18 19 19 19 19 19 19 19 18 19 18 18 18 16 17 16 16 16 15 13 13 14 12 12 11 11 10 7 11 14 16 21 24 25 23 20 19 21 24 25 25 24 25 26 23 21 19 19 17 16 14 11 8 8 13 13 11 9 8 8 8 8 5 6 10 12 13 12 9 10 14 15 13 11 11 14 18 19 20 25 26 26
16 16 17 17 17 17 18 18 19 19 19 19 19 19 19 19 19 19 18 18 17 17 17 16 16 15 13 14 13 12 12 12 10 9 12 13 13 17 21 23 20 18 19 19 23 25 25 25 26 26 24 22 22 21 19 17 15 12 9 10 15 13 11 10 8 8 8 7 3 6 9 11 13 12 10 11 14 13 9 8 6 7 16 21 21 26 27 26
15 16 16 16 16 17 17 18 18 18 19 19 19 20 20 19 19 19 19 18 18 18 18 17 17 16 14 14 13 12 11 10 9 8 9 11 13 13 16 20 18 17 20 21 25 28 29 30 29 28 27 24 24 23 20 17 15 13 11 14 15 13 13 13 10 8 7 6 5 6 4 7 11 10 10 11 8 2 2 3 5 4 13 18 17 24 27 26
15 15 16 16 16 16 17 17 18 18 18 19 19 20 20 19 19 19 19 19 18 18 19 18 17 16 16 14 13 12 10 8 8 7 5 7 11 11 13 18 18 20 22 23 25 29 32 32 33 32 30 27 26 24 19 17 17 14 15 17 15 14 16 16 11 7 6 5 4 3 2 7 10 7 9 9 3 4 5 1 3 3 9 16 16 21 24 23
15 15 15 15 15 15 16 17 17 18 18 19 19 20 20 20 19 19 19 19 19 19 19 19 19 17 17 16 14 13 10 10 12 11 7 7 8 11 14 18 21 23 24 25 26 30 33 35 35 33 31 29 28 24 19 19 18 16 17 18 15 17 18 15 11 8 9 7 4 3 6 11 9 6 8 7 6 9 9 5 4 4 8 15 17 19 20 19
15 15 15 15 15 15 16 16 17 18 18 18 19 20 20 20 20 20 19 19 19 19 19 19 19 18 18 17 15 13 11 12 14 12 9 11 11 11 15 18 22 24 24 23 24 28 31 35 35 33 32 31 28 24 20 19 20 19 19 17 15 17 16 11 8 9 9 8 7 7 9 10 6 6 8 7 10 15 13 9 8 7 8 14 16 18 20 20
17 16 16 15 15 15 16 16 16 17 17 17 18 19 20 20 20 20 19 19 19 19 20 20 20 19 18 18 16 14 14 13 12 11 10 12 13 12 14 17 19 22 23 21 21 25 30 34 34 33 32 30 28 24 21 22 21 18 17 16 14 16 14 9 8 8 10 11 11 9 8 9 8 11 14 11 13 16 15 13 10 9 9 12 15 18 20 20
19 18 17 16 16 15 16 16 15 15 16 17 17 18 19 19 19 20 19 19 19 19 19 20 20 20 19 18 17 14 15 14 11 13 13 13 14 13 14 16 18 19 20 21 22 25 27 30 30 30 29 27 27 25 24 25 20 16 16 15 14 14 12 9 8 8 11 14 13 12 9 10 10 14 18 16 16 17 17 15 12 11 11 11 14 18 20 21
19 19 18 17 17 16 16 15 14 15 16 16 17 18 18 18 18 18 18 18 19 19 19 19 20 20 19 19 17 14 15 15 12 14 16 15 15 13 13 15 17 18 19 21 21 21 21 24 26 28 28 28 28 26 26 25 19 18 17 17 17 15 13 12 10 9 12 16 16 15 12 11 13 15 17 16 16 17 16 15 13 12 12 12 14 17 20 22
20 19 18 18 18 16 15 14 14 15 16 16 17 18 19 19 19 19 18 18 18 18 18 18 20 20 20 18 15 15 16 15 14 15 16 15 16 15 14 14 16 17 18 18 17 17 19 23 26 29 29 28 29 26 26 26 21 19 19 19 19 16 17 15 13 13 14 17 17 17 16 16 18 17 16 17 16 16 16 15 13 14 13 13 15 17 20 23
20 20 19 18 18 17 16 15 16 17 17 17 17 19 20 20 20 20 19 18 19 18 17 17 18 19 21 15 11 15 17 16 16 16 16 15 16 16 15 17 18 17 17 16 13 13 17 23 27 30 29 26 29 26 22 26 24 20 20 21 19 19 20 18 16 17 18 20 19 19 20 20 20 18 17 18 18 17 17 15 14 16 16 15 16 18 20 23
21 21 20 20 19 19 19 19 18 19 20 19 19 20 20 21 21 21 21 19 19 19 18 18 18 18 20 14 12 15 16 15 14 15 18 17 17 17 15 16 20 21 20 18 14 12 14 21 27 29 29 27 30 27 20 22 25 22 19 21 22 23 22 20 17 18 19 24 24 22 23 21 17 19 21 18 18 17 17 16 15 17 18 18 18 18 20 23
22 22 22 22 22 22 22 22 22 22 22 21 20 21 21 21 21 22 21 19 20 20 19 18 17 17 18 15 15 17 17 16 15 18 21 19 19 18 15 15 19 23 23 22 20 15 14 21 29 31 32 30 28 28 22 20 24 22 18 20 24 26 24 21 18 19 19 23 26 27 26 22 16 19 22 19 18 17 17 17 16 18 20 19 19 18 20 23
24 24 24 25 25 25 25 25 25 24 24 22 21 22 22 22 21 22 21 20 21 20 19 17 16 16 16 14 14 16 20 21 21 23 23 22 21 18 16 17 20 25 26 25 24 20 18 22 29 31 31 30 28 29 26 22 24 25 21 22 22 23 25 22 19 20 20 21 27 31 29 25 18 19 22 20 19 19 18 18 18 19 21 21 20 18 20 23
25 26 26 27 27 27 27 27 26 25 24 22 21 22 23 23 22 21 20 20 21 20 19 17 16 16 15 15 14 15 21 26 27 28 26 25 25 21 20 20 23 27 27 26 27 25 23 25 30 31 31 32 30 28 26 27 30 29 26 25 24 22 22 23 21 20 19 22 27 32 33 29 21 19 21 21 21 21 19 19 20 21 22 22 21 19 20 24
26 26 27 27 28 28 27 27 27 26 24 23 22 23 23 24 23 22 19 19 20 20 18 16 16 13 8 9 11 15 22 27 30 31 29 27 27 25 23 20 22 28 28 28 30 30 29 28 31 33 34 35 35 34 34 35 35 33 28 26 26 24 24 24 22 19 18 23 28 32 34 31 25 21 20 20 20 21 20 19 20 22 22 22 21 19 20 22
27 27 27 27 28 28 27 27 27 26 24 23 23 24 24 23 22 21 17 19 20 17 15 14 14 10 6 9 13 19 24 28 30 31 30 29 29 27 24 22 24 29 30 32 34 35 34 33 34 37 42 45 45 44 44 38 32 31 29 26 26 26 27 27 24 18 15 22 30 33 33 30 27 26 23 21 20 19 20 20 21 23 23 22 21 19 20 21
27 27 27 27 27 28 27 26 27 27 25 24 24 24 24 22 20 18 11 17 20 14 11 12 12 9 10 15 20 23 24 26 29 30 31 32 32 30 28 26 27 29 31 34 36 37 36 37 42 47 50 52 49 45 42 37 30 25 24 25 27 28 29 29 26 19 15 23 32 33 31 28 28 30 29 26 22 20 21 22 24 25 25 24 22 20 19 19
28 28 27 26 26 27 26 25 26 26 25 25 25 24 25 23 22 19 13 16 18 12 8 10 11 9 10 14 20 25 25 25 26 27 30 33 34 34 33 30 30 32 33 32 33 35 37 41 47 50 50 48 45 43 38 36 33 26 21 21 25 29 32 29 26 20 16 22 31 32 32 31 30 32 32 30 27 25 24 24 25 26 26 25 22 20 18 17
28 28 27 26 25 25 25 25 24 24 24 24 24 23 24 23 23 23 21 19 16 10 8 8 10 11 11 12 15 19 24 26 24 25 29 33 36 37 36 34 33 34 33 31 32 34 38 46 49 46 46 44 42 41 38 35 35 32 26 23 25 31 32 29 27 23 18 19 25 29 32 33 32 33 34 32 31 30 26 23 24 25 27 27 24 20 18 18
27 27 27 25 25 24 24 24 23 23 24 23 23 22 22 23 22 23 23 22 17 10 7 7 9 12 11 12 14 13 17 23 25 26 28 33 38 38 37 37 35 33 33 34 37 38 41 47 49 45 44 43 42 40 38 35 34 35 33 29 31 32 29 29 29 26 22 20 21 23 28 32 33 35 37 35 32 31 27 23 23 24 27 26 22 20 19 19
27 27 26 25 24 24 24 23 22 22 22 22 22 22 22 22 22 22 23 23 17 12 10 7 8 13 12 13 16 12 9 14 22 28 27 32 37 38 38 38 36 36 36 37 38 41 44 43 41 44 45 42 42 41 37 35 35 37 37 36 37 34 31 34 30 23 23 23 19 18 21 29 36 38 39 38 34 32 29 26 26 27 28 26 23 22 22 20
27 27 27 26 24 24 24 23 22 21 20 20 20 20 21 21 22 22 22 21 14 9 10 11 10 12 13 13 16 12 5 6 15 25 28 30 34 37 39 38 38 39 39 37 36 39 45 38 28 36 47 44 41 41 40 37 36 38 41 42 40 36 36 35 28 19 19 21 22 17 13 19 33 41 42 40 38 37 32 29 30 29 30 31 29 26 25 24
28 27 27 27 25 25 25 24 23 21 20 19 18 19 19 19 21 21 19 16 11 7 8 12 11 11 13 14 16 11 2 5 10 20 27 31 35 37 38 39 39 40 39 37 36 38 44 40 23 20 36 45 41 40 42 39 34 39 46 47 41 38 37 33 26 18 15 18 21 18 12 12 25 39 44 43 41 40 37 33 32 31 32 33 32 29 28 27
29 28 28 27 26 25 25 25 24 23 21 19 18 18 17 18 18 18 15 10 8 8 8 11 13 14 14 15 16 11 4 3 10 18 22 29 38 38 38 40 37 37 37 35 36 39 41 43 34 18 20 38 44 44 44 39 37 44 49 46 40 39 40 36 28 21 20 23 23 21 18 14 22 34 41 45 45 43 40 37 35 34 34 34 32 30 30 29
30 29 28 26 25 24 25 25 24 24 23 21 20 18 16 15 15 15 10 3 5 10 12 12 14 17 14 11 12 10 7 6 6 13 15 23 34 36 37 39 36 33 34 35 39 42 39 42 44 32 22 31 42 47 46 40 41 47 44 40 40 40 39 37 29 26 28 26 26 30 26 14 17 30 37 44 49 46 43 41 38 36 35 35 34 31 30 29
31 30 28 25 24 23 24 25 24 24 24 22 21 19 17 14 13 12 6 2 6 10 13 14 14 18 16 9 9 7 7 8 7 6 8 17 28 34 37 36 34 31 32 37 40 38 38 40 41 38 34 33 32 37 43 42 42 42 36 33 37 39 39 34 26 27 28 20 25 37 31 13 12 26 35 46 51 50 47 45 40 36 35 34 34 32 30 29
31 31 28 25 23 22 22 23 22 23 23 22 21 20 18 14 11 8 3 3 7 10 14 16 15 19 21 11 11 10 9 9 9 9 7 12 18 29 35 31 28 28 29 35 39 38 35 31 31 37 42 38 30 26 34 40 41 37 30 25 27 31 35 31 25 27 22 14 26 40 36 19 11 20 31 42 49 49 47 48 43 38 37 35 33 33 33 31
31 30 28 25 23 22 22 21 20 21 21 21 20 19 16 13 10 4 3 6 10 13 16 18 18 20 21 17 10 9 10 10 10 9 5 5 10 20 27 23 22 26 29 32 35 39 37 27 25 31 34 36 35 31 29 32 37 36 29 24 21 21 24 23 21 24 14 9 26 40 37 26 17 22 29 32 41 45 44 44 43 39 38 36 34 34 34 32
31 29 27 25 23 23 24 23 22 21 21 20 19 16 11 8 7 4 5 10 8 12 18 21 23 21 18 18 15 11 11 12 11 7 7 9 5 4 4 5 10 15 26 33 32 34 39 37 32 27 24 27 33 37 34 30 34 38 33 29 21 12 12 12 9 12 8 9 27 36 31 26 27 35 36 30 33 40 43 40 35 33 32 33 35 34 34 34
31 29 27 25 24 24 23 23 22 20 20 19 16 12 6 4 4 4 9 10 7 12 19 21 21 18 15 16 17 15 11 12 12 4 5 12 10 7 12 6 6 4 11 24 26 28 32 35 37 33 28 26 30 38 38 33 35 39 38 34 24 9 4 8 5 4 5 9 26 36 28 21 27 37 38 35 33 34 39 40 33 29 29 28 31 33 34 34
30 28 26 26 24 23 21 21 20 18 16 16 14 9 3 2 1 4 8 9 10 14 19 20 19 16 13 14 17 17 13 11 11 5 4 12 9 5 11 7 5 2 6 12 14 20 23 26 36 42 37 32 34 37 38 36 35 38 41 39 33 24 13 7 4 3 5 7 19 31 21 11 19 32 35 35 35 32 34 38 37 33 30 29 30 32 34 35
30 28 26 24 21 20 20 19 19 18 16 14 11 6 4 3 5 7 9 10 12 14 17 18 17 14 14 15 15 17 16 13 14 10 9 13 11 9 13 14 9 5 2 4 4 10 16 26 36 39 38 37 35 35 36 36 34 34 40 40 40 42 30 12 5 8 9 7 13 24 18 8 15 29 32 30 31 33 32 35 42 41 36 36 39 38 36 35
29 29 26 22 17 17 17 16 16 16 15 11 6 4 5 5 6 7 9 10 11 13 16 17 15 14 15 15 14 16 18 16 16 14 10 10 9 8 12 15 13 11 12 13 9 6 8 23 33 30 35 41 39 37 36 38 35 32 38 44 46 46 36 19 11 13 12 7 12 22 21 16 16 23 29 30 29 31 31 32 40 44 41 42 44 42 40 38
28 29 26 20 17 17 15 12 13 13 11 7 5 4 4 4 4 6 9 10 10 12 14 14 13 12 14 14 14 18 20 17 16 16 12 9 5 6 11 12 11 8 15 20 10 7 17 20 29 29 31 38 39 38 36 38 38 33 37 46 43 35 34 29 15 9 9 5 9 18 20 20 19 18 26 32 31 31 31 31 34 39 42 43 42 41 40 40
27 28 25 20 20 20 16 12 11 10 8 7 7 5 3 4 6 7 9 11 12 12 12 10 8 9 12 13 13 16 18 18 19 18 14 8 4 5 12 12 11 10 10 15 12 9 19 19 23 29 29 33 38 39 37 36 38 37 36 39 35 27 28 31 19 8 7 4 4 10 15 21 27 25 26 31 35 34 31 30 32 36 39 41 40 39 38 39
26 25 22 20 21 23 18 12 10 8 7 8 7 4 2 4 6 6 8 9 9 10 9 6 5 8 11 13 13 14 15 16 18 17 12 8 5 7 13 14 12 13 12 13 16 14 12 10 14 24 26 29 35 39 40 39 38 41 39 33 34 34 31 31 25 15 8 4 3 5 7 16 28 30 27 30 35 36 34 33 33 35 38 38 36 36 36 37
24 24 22 20 22 22 19 13 10 8 9 9 6 2 1 1 3 3 4 5 5 5 4 4 7 9 11 12 12 11 10 10 14 15 11 10 10 10 13 14 14 17 17 14 15 15 10 10 13 20 23 23 28 34 42 44 39 42 44 36 35 38 34 29 26 23 15 4 3 4 5 14 24 27 26 26 29 33 36 36 35 35 35 35 33 30 31 32
24 26 25 22 22 21 17 10 9 9 10 9 7 6 6 3 3 2 3 4 5 5 4 6 8 9 10 10 10 9 8 7 10 12 11 9 10 10 12 17 20 22 21 16 12 14 14 15 18 21 20 22 29 34 38 41 37 38 42 41 39 36 30 21 14 23 27 14 5 4 5 16 24 24 25 25 25 28 32 34 36 36 36 35 33 29 28 28
24 27 28 27 25 21 15 6 8 11 10 9 7 6 5 6 7 3 4 6 5 5 6 7 8 8 9 10 10 10 9 9 9 9 9 9 10 12 15 19 22 22 22 21 17 14 15 15 17 23 26 27 37 37 32 33 35 35 33 36 41 38 34 25 14 19 28 22 18 11 8 21 29 25 26 28 28 31 33 35 37 37 37 38 37 35 31 29
24 24 27 29 27 23 17 8 6 11 11 8 6 5 6 9 10 4 2 5 5 5 7 8 9 9 9 9 11 12 11 9 7 8 11 12 11 12 15 18 20 21 21 20 16 12 10 11 14 20 26 30 42 41 33 27 25 26 27 30 37 40 41 38 30 26 24 23 25 14 8 27 35 24 24 27 27 30 32 36 40 41 42 41 40 40 37 32
26 23 25 29 27 22 18 13 6 7 9 8 6 6 8 11 13 11 6 1 4 5 6 7 8 8 8 10 11 11 10 7 6 10 14 13 13 13 15 17 18 19 18 16 14 12 9 8 13 16 13 17 29 32 29 25 18 18 21 24 31 40 43 40 35 31 24 26 32 17 10 33 39 26 24 24 21 21 22 26 34 39 44 46 46 45 41 35
28 23 24 26 23 21 21 16 9 7 7 7 8 8 8 9 10 11 7 1 1 3 5 5 6 7 8 10 10 9 9 8 9 12 14 14 14 14 15 16 17 17 16 14 13 13 12 12 11 10 5 7 12 11 11 12 12 16 20 21 27 37 42 40 34 26 22 26 34 27 24 41 42 30 28 25 20 20 18 21 27 31 37 43 46 46 42 37
29 25 24 22 17 17 20 15 10 9 9 7 7 8 8 7 6 5 3 1 3 3 3 4 5 8 10 10 11 11 10 10 10 11 13 14 14 14 14 15 17 16 12 11 11 12 15 16 15 15 16 18 21 15 8 12 16 19 21 22 28 32 37 41 36 30 27 26 31 36 39 43 43 38 31 25 23 24 22 24 25 27 31 36 40 41 39 36
28 27 27 22 15 13 15 12 9 8 7 7 5 4 4 5 4 5 5 2 3 3 4 5 7 9 10 11 13 14 13 13 13 11 11 12 13 15 15 14 15 14 11 11 13 14 16 18 17 17 20 22 27 26 20 20 22 21 18 19 26 28 28 36 41 41 36 26 25 35 40 39 43 43 33 26 26 28 28 23 21 27 29 32 35 36 35 34
26 26 25 22 17 15 14 11 9 6 5 6 3 2 4 3 2 3 4 3 3 4 5 6 8 9 10 12 14 16 17 16 15 13 12 12 14 16 16 15 13 11 10 11 14 15 16 20 18 15 20 23 25 25 24 22 21 19 17 16 20 23 23 29 41 47 42 33 31 35 36 37 42 40 33 29 29 32 33 21 22 26 27 31 33 34 34 32
26 25 23 18 15 16 15 12 10 6 5 6 3 3 6 5 4 5 4 5 6 6 6 8 10 10 11 12 14 16 17 17 17 18 16 15 16 17 18 17 14 11 11 11 13 15 16 19 17 14 23 26 20 16 17 18 18 17 16 15 17 22 25 26 34 45 46 42 41 38 36 38 39 35 33 31 30 32 31 19 26 26 26 30 32 35 36 33
26 25 21 16 13 12 11 11 9 7 5 6 5 5 7 8 8 6 7 9 10 7 7 8 10 11 12 13 14 16 16 16 18 20 19 18 20 20 20 20 17 15 14 11 12 13 15 17 15 15 25 21 10 11 13 16 16 14 12 13 16 22 28 26 29 41 46 44 42 39 38 39 36 32 31 29 26 28 25 18 28 25 24 29 30 32 35 33
25 24 19 15 14 13 11 10 9 8 7 6 6 7 8 9 10 10 9 9 7 6 8 8 9 12 13 14 14 15 16 16 18 20 19 20 21 21 21 22 21 19 15 11 11 15 17 19 15 15 23 13 6 8 15 19 16 9 7 7 12 20 25 26 29 37 44 44 42 40 40 39 34 31 30 28 25 25 21 20 27 25 24 26 27 28 30 30
24 23 19 16 16 14 11 10 10 10 9 7 7 9 10 10 10 11 10 6 3 4 8 8 8 11 13 14 14 15 16 18 20 20 20 20 21 21 22 22 23 22 16 11 12 16 17 19 15 13 16 8 4 8 11 14 12 5 5 5 9 14 19 26 31 36 42 43 42 40 39 37 34 31 31 29 25 23 20 22 28 26 24 24 24 26 27 28
Wind_Direction
326 325 323 321 320 318 316 315 314 313 312 311 309 307 307 306 306 306 304 303 301 300 297 293 288 287 288 287 288 281 274 273 275 276 257 230 217 214 210 212 212 209 205 203 205 200 198 201 203 207 204 197 191 193 193 192 206 207 186 157 144 143 138 126 117 143 168 152 146 156 176 176 170 172 178 176 176 191 180 162 184 187 188 199 209 208 188 172
329 327 325 323 322 320 317 315 314 313 312 310 308 305 304 303 303 302 301 301 300 300 298 296 290 286 285 284 282 279 278 274 273 271 248 230 219 217 211 213 213 208 206 204 205 204 201 202 204 208 207 200 192 196 199 198 210 207 189 157 139 143 141 132 122 127 150 155 148 151 168 172 171 170 171 177 173 183 191 176 182 189 190 192 196 201 191 178
333 331 330 329 327 325 322 319 317 315 313 311 309 305 303 302 300 300 298 297 297 297 296 295 292 288 284 281 279 277 279 278 275 253 244 240 229 224 217 219 217 207 207 204 204 205 203 205 209 210 208 201 196 201 203 204 212 209 202 167 141 144 144 135 130 130 141 154 162 153 160 168 176 179 170 174 177 186 201 187 185 199 195 187 188 196 193 184
339 339 337 336 334 331 328 326 323 321 318 315 311 308 305 302 300 298 297 295 294 293 293 293 292 290 286 281 277 275 277 281 280 258 249 247 239 232 222 226 224 207 205 202 199 200 200 205 209 211 211 204 199 204 207 206 209 209 201 160 142 145 140 128 123 132 148 153 160 167 171 173 176 187 184 183 188 193 210 211 225 237 205 192 184 192 194 187
346 344 342 340 339 337 334 331 328 326 324 320 316 312 308 305 302 299 297 295 292 291 290 290 289 289 287 282 277 274 275 282 283 265 249 241 238 235 222 224 222 206 205 205 199 197 198 202 205 207 209 206 204 206 207 209 212 207 179 149 143 144 139 134 128 133 148 144 155 173 190 192 183 187 194 198 201 208 342 225 222 243 216 205 188 189 193 188
346 345 343 341 339 338 336 334 332 330 327 325 321 317 313 310 306 301 298 294 292 289 287 286 285 286 286 283 279 274 269 270 269 256 236 226 227 221 214 214 210 202 204 206 203 200 199 202 204 204 204 204 208 208 205 209 216 204 170 155 150 146 148 146 142 153 172 174 184 180 178 208 207 196 202 213 241 314 322 286 168 168 214 213 195 189 192 190
344 342 340 339 338 337 336 335 333 330 329 326 323 320 316 314 310 306 301 296 293 288 285 283 282 281 281 282 280 275 266 252 250 252 244 239 230 210 204 205 202 201 204 206 206 205 202 203 204 203 203 203 207 207 201 207 215 205 177 164 156 151 150 149 148 167 192 206 216 237 215 215 227 215 212 226 236 249 262 250 188 170 196 204 199 194 195 194
338 338 336 334 334 333 334 333 333 331 330 328 325 323 320 318 315 311 306 301 295 289 284 281 279 278 277 278 278 276 268 251 249 256 254 249 243 217 205 204 203 203 206 209 210 210 208 208 206 203 204 203 206 203 197 205 213 209 186 167 164 158 149 146 156 167 191 205 204 225 229 221 226 224 235 245 230 236 247 241 214 196 190 196 201 199 198 197
334 334 331 329 329 330 330 331 332 332 332 332 329 327 324 322 320 315 311 306 299 292 285 280 278 275 274 274 274 275 269 257 247 243 239 239 237 223 210 210 211 207 206 208 211 213 213 213 208 205 206 204 206 201 196 207 214 212 188 172 170 163 154 156 172 178 187 192 199 218 222 210 202 210 227 238 235 236 240 241 228 211 204 198 200 202 202 200
331 331 329 328 327 327 328 330 334 334 335 336 334 334 330 329 327 320 315 310 303 296 289 284 278 274 273 270 269 273 268 257 244 232 227 227 228 218 206 210 215 210 208 207 210 214 215 216 212 210 210 206 207 202 200 208 212 208 191 187 186 176 177 185 197 202 195 193 203 219 216 207 206 211 220 226 232 235 235 238 235 223 218 207 200 200 204 203
330 330 329 327 325 326 327 329 334 335 336 338 338 338 335 335 335 328 322 316 310 302 295 287 281 276 271 268 268 268 264 259 243 229 227 223 222 211 199 211 214 209 210 211 214 218 217 216 212 211 210 209 207 203 205 210 210 207 203 205 201 199 214 219 221 219 208 206 211 220 216 210 214 222 227 227 231 234 233 235 237 231 220 212 204 200 203 203
333 331 329 327 325 325 325 327 331 332 334 336 338 336 333 335 337 335 331 326 320 310 302 293 284 278 270 269 270 261 256 254 239 222 220 220 219 209 196 203 210 208 209 213 218 221 219 213 209 209 208 208 206 201 208 212 211 210 213 215 207 218 230 219 223 225 219 218 215 215 211 212 221 226 231 231 236 239 236 234 238 235 221 212 208 202 201 201
335 333 330 328 324 324 323 323 325 325 327 330 333 330 327 330 331 334 334 332 329 319 310 300 288 280 271 267 261 252 248 247 240 225 219 217 217 218 207 196 197 203 206 209 217 221 222 214 209 209 207 208 206 201 206 210 216 218 219 222 219 235 231 208 222 237 236 233 220 210 211 222 229 226 229 233 237 240 236 231 234 235 225 215 208 203 201 199
333 332 329 327 323 321 319 318 319 318 319 322 326 323 321 323 325 330 332 332 333 324 315 307 297 284 274 264 240 240 244 246 241 224 220 218 215 218 220 210 198 197 199 199 205 213 219 214 210 209 207 209 206 203 202 203 213 220 224 230 233 245 230 203 223 240 241 239 225 216 223 237 236 223 226 233 236 237 237 232 230 231 226 218 210 203 202 200
330 329 327 325 322 319 317 316 316 315 315 318 322 318 315 317 319 325 329 332 334 323 312 307 299 286 277 267 242 233 235 236 225 214 216 218 217 218 227 235 214 197 193 192 195 199 207 211 209 207 205 209 208 205 203 197 203 211 222 232 235 243 232 211 225 234 236 238 228 221 230 240 235 224 225 225 228 233 241 240 231 229 226 221 215 206 202 201
329 328 326 324 320 318 317 316 316 315 315 317 319 315 313 316 318 323 328 334 332 317 307 305 296 286 282 275 249 227 222 222 217 215 217 213 213 220 228 236 220 199 190 189 190 192 199 208 210 208 205 207 208 206 208 212 208 206 217 228 230 238 238 230 225 222 233 240 228 224 230 238 234 227 226 221 224 234 246 243 234 232 226 222 221 211 202 200
331 330 328 325 321 318 318 316 315 315 315 317 318 313 313 315 317 324 331 336 329 313 308 304 292 286 282 273 252 226 216 216 217 216 219 214 206 212 222 227 218 200 190 188 189 191 196 204 207 207 205 206 206 205 216 226 216 208 215 225 225 227 235 240 228 216 231 241 231 226 229 237 241 235 229 224 227 236 244 238 232 232 225 222 224 216 206 203
333 332 330 328 322 319 319 318 316 316 316 317 317 314 314 315 318 326 334 337 327 317 314 302 294 295 279 253 233 222 216 213 215 215 216 216 207 206 216 222 211 197 189 189 190 191 194 200 204 206 207 206 204 204 214 219 213 207 212 222 225 225 227 232 228 218 231 238 231 226 226 232 238 238 236 230 232 239 239 233 231 231 225 222 224 220 212 207
335 334 333 330 324 321 322 319 317 316 317 317 316 316 315 314 316 319 331 342 334 332 332 316 308 304 263 236 224 224 223 213 212 212 210 212 207 205 208 205 197 192 191 192 192 193 194 197 201 206 208 206 202 203 209 213 210 209 216 222 224 227 227 226 224 222 236 235 225 225 227 228 229 231 236 235 236 240 235 230 228 228 226 223 222 222 218 212
336 336 335 333 327 323 324 322 319 318 318 318 315 315 313 310 309 308 334 1 349 345 349 340 333 310 263 249 237 233 233 221 213 210 206 205 203 201 200 193 188 191 195 195 194 194 196 199 201 205 207 204 202 204 211 215 210 212 224 227 226 230 228 222 220 220 236 233 221 222 229 232 230 230 235 237 236 235 228 226 225 224 224 223 223 224 222 217
336 337 337 336 332 327 326 325 322 321 320 319 316 317 317 317 320 319 337 8 356 335 333 353 359 334 285 260 243 232 228 221 216 211 206 202 198 198 197 192 189 194 198 197 197 197 200 205 208 210 208 205 205 207 214 218 214 215 223 227 230 232 227 220 217 221 233 233 225 223 228 235 236 232 234 236 235 233 227 221 219 220 222 223 226 226 223 218
336 337 337 338 336 331 329 328 326 324 321 321 321 321 322 321 325 327 330 347 350 326 315 344 358 344 309 280 261 237 222 216 209 206 205 200 197 199 197 195 195 198 197 195 199 201 205 212 214 213 210 208 209 211 216 220 220 221 223 228 230 228 229 224 217 220 231 238 234 229 229 237 241 235 234 236 237 239 235 225 218 217 218 220 222 221 218 214
335 336 336 336 337 334 331 330 328 327 323 322 323 319 320 319 321 327 329 334 333 310 307 331 349 345 318 296 293 262 230 219 200 193 201 201 198 200 200 201 201 201 199 197 201 202 207 216 218 213 211 211 211 212 217 221 224 225 226 230 228 223 228 225 217 219 231 240 243 241 237 239 239 234 233 237 240 243 243 235 226 220 217 217 217 215 215 211
334 335 335 334 336 334 331 332 331 329 324 322 321 317 319 319 321 327 324 324 319 289 287 307 332 336 325 322 322 304 264 232 196 184 195 201 199 200 203 205 204 205 204 202 205 207 210 217 219 214 213 214 213 213 217 221 224 226 226 227 226 220 218 221 222 225 233 236 237 247 248 237 232 228 229 235 236 237 242 237 228 223 218 219 220 219 218 215
334 336 335 333 337 335 331 333 332 328 323 320 319 318 320 319 321 324 318 317 311 275 283 304 318 325 324 335 337 329 298 235 194 188 195 199 199 202 205 206 208 211 210 207 209 215 216 217 219 217 214 214 216 217 216 219 224 227 225 222 222 219 213 222 234 239 248 245 232 236 249 234 229 230 231 231 227 228 233 233 229 222 216 218 221 222 221 217
337 338 338 335 337 337 332 331 330 327 324 322 320 319 320 319 320 319 314 311 295 263 295 314 312 314 320 329 338 340 284 182 178 197 203 199 200 202 205 207 211 214 215 212 214 220 219 217 214 216 217 216 217 219 218 217 223 229 225 218 219 220 218 230 242 243 255 254 238 235 252 242 225 226 230 229 227 227 227 228 229 223 217 217 218 221 222 217
340 340 341 338 338 338 332 328 329 327 325 324 322 322 322 320 318 313 310 309 290 273 293 312 314 315 323 328 333 342 320 208 180 198 209 205 202 201 204 208 211 216 216 213 218 223 220 218 214 205 217 219 216 219 219 214 220 228 225 219 223 223 221 233 244 242 246 255 253 245 252 253 224 225 229 226 226 226 224 226 227 222 219 219 218 218 220 218
341 341 342 340 338 338 331 328 329 326 324 323 322 323 320 317 316 308 306 306 290 289 292 304 312 314 316 307 314 335 335 306 220 206 213 209 205 203 206 209 210 216 217 213 219 224 221 220 217 208 211 220 219 221 219 212 218 228 228 224 227 225 225 236 246 248 250 260 264 253 251 258 238 237 231 219 220 221 222 227 226 221 220 219 219 218 217 216
342 341 341 340 338 336 329 327 327 323 321 319 319 320 315 316 314 301 286 229 281 296 302 305 307 316 317 274 255 279 293 298 290 265 230 211 211 209 208 210 211 216 220 221 224 226 225 226 223 216 216 221 223 225 222 216 219 227 231 230 231 229 233 243 249 252 254 256 259 255 252 252 251 245 225 209 213 217 222 229 228 223 221 219 219 218 217 215
341 340 340 339 335 331 327 325 323 317 315 314 315 315 313 314 305 288 246 245 295 304 302 306 310 323 328 295 241 245 265 274 288 295 254 215 218 216 210 209 215 219 222 226 228 228 228 233 232 227 225 224 225 228 226 224 224 227 229 232 236 236 239 247 250 249 252 247 248 253 253 247 254 252 229 213 216 220 224 228 229 226 223 221 220 218 219 218
340 340 340 338 332 325 321 319 316 311 309 309 310 311 311 307 288 250 204 270 299 309 307 317 324 331 337 325 284 254 265 274 285 301 283 227 221 217 212 207 217 229 228 227 229 228 227 229 230 233 235 231 230 231 231 231 228 225 225 225 232 239 240 246 243 235 235 242 246 251 253 247 239 247 242 231 227 227 226 226 226 227 226 225 223 218 219 220
339 340 338 335 328 325 324 323 321 316 312 309 306 306 303 290 264 229 274 290 304 324 327 335 339 342 345 336 318 294 285 287 297 332 20 23 37 165 178 192 220 238 234 228 227 226 226 226 225 229 237 232 230 229 228 232 228 222 220 219 219 227 234 233 226 219 220 240 246 250 253 246 241 247 248 244 238 232 230 230 228 231 234 232 228 219 217 220
338 338 337 334 332 334 335 331 327 325 321 313 306 306 292 255 238 262 303 316 323 331 334 338 344 350 346 338 332 323 310 296 298 318 29 16 25 60 46 52 189 225 245 229 224 223 224 227 226 225 229 227 224 223 220 221 223 218 214 213 209 199 213 222 211 227 231 230 242 248 252 247 247 250 246 241 241 238 235 234 232 236 243 242 236 225 219 220
337 337 337 337 339 342 341 335 331 331 330 320 312 315 308 238 273 307 323 334 327 328 334 336 344 352 348 351 348 336 329 313 305 298 319 348 358 19 30 47 172 238 252 220 218 223 220 222 222 219 221 221 221 223 221 218 220 219 214 212 214 212 210 211 194 205 206 206 238 242 241 234 239 245 242 236 236 239 240 237 233 236 243 245 243 234 224 222
337 335 336 341 346 345 341 337 335 334 333 327 323 347 26 10 342 333 332 333 329 330 332 334 346 356 355 4 3 344 341 334 317 306 315 346 359 353 2 15 24 16 261 223 269 253 232 226 223 218 219 220 220 223 223 218 217 221 216 211 217 219 215 213 228 227 209 194 229 233 227 227 243 247 244 236 233 235 241 240 233 232 236 239 240 237 232 227
335 331 336 346 350 346 340 336 336 333 327 328 344 29 35 3 337 331 328 327 329 326 323 331 349 3 0 3 6 348 341 339 328 321 330 353 2 341 343 358 7 24 29 10 345 339 294 238 219 212 218 220 220 220 219 216 213 214 212 211 217 221 217 216 235 238 222 205 224 228 230 234 241 248 242 235 233 231 235 239 234 231 233 235 237 239 238 234
335 332 339 349 348 345 340 332 333 326 315 326 356 11 21 11 327 308 312 318 322 318 321 335 350 359 354 354 0 348 340 342 339 340 348 356 3 328 321 340 352 3 20 11 1 11 337 274 218 201 211 216 218 223 223 220 217 211 211 215 217 218 221 222 225 233 219 216 231 226 226 222 218 230 233 229 230 229 229 233 233 232 234 236 239 241 242 240
340 336 340 346 343 339 331 320 321 314 301 312 324 325 355 5 331 307 303 310 314 314 323 340 347 345 343 345 348 341 341 343 342 347 357 1 27 335 310 317 329 320 340 358 354 355 340 298 227 203 208 212 212 219 224 225 224 220 220 222 213 204 213 216 216 225 215 217 262 229 221 218 216 220 223 224 226 227 226 225 226 229 233 236 239 240 242 242
341 333 335 340 338 334 323 304 294 292 281 284 296 301 306 328 330 313 303 308 311 314 326 340 337 331 335 337 331 328 339 344 338 345 356 351 345 320 305 303 306 302 306 333 343 346 356 327 244 213 206 209 209 211 216 219 222 222 226 228 219 213 214 211 212 218 211 202 242 234 223 220 219 220 222 225 227 227 226 222 221 224 229 233 235 236 239 240
338 330 330 338 339 335 327 305 279 268 258 253 255 224 185 322 337 326 321 326 323 322 333 332 329 333 334 334 330 328 342 346 336 340 350 349 341 316 297 297 294 292 297 311 332 340 358 349 284 231 204 205 208 207 212 214 214 215 218 219 217 217 216 215 218 220 218 214 187 205 249 236 226 222 222 225 226 228 228 226 223 223 226 229 230 230 231 233
340 332 331 341 344 342 336 307 260 248 246 235 225 199 170 178 256 305 28 29 353 346 345 321 325 344 345 344 350 346 346 343 328 332 346 354 348 325 301 302 301 295 293 292 311 339 345 335 305 265 237 217 206 204 209 214 213 212 215 216 215 213 208 208 218 220 221 228 220 201 261 254 242 234 231 228 223 224 225 225 226 226 226 227 227 225 221 221
347 338 336 343 346 349 355 327 243 243 240 223 221 214 185 203 233 238 75 56 15 353 346 328 329 356 356 353 359 349 338 337 324 325 341 342 335 323 307 307 306 299 296 293 298 326 334 327 311 282 261 226 204 202 205 209 211 213 215 220 220 216 210 208 210 213 214 223 241 251 275 261 252 245 245 243 234 230 228 226 227 225 224 226 228 227 222 217
354 347 340 343 346 350 1 360 273 248 237 222 222 224 218 232 242 238 96 64 31 357 353 345 341 354 355 347 346 341 336 335 319 318 329 325 323 321 310 309 307 300 299 296 295 315 325 330 326 294 265 227 208 207 206 204 212 221 221 222 222 219 217 217 220 220 212 213 228 240 271 257 250 243 244 245 240 240 238 234 232 228 226 227 229 231 229 222
355 354 348 346 347 348 353 356 331 262 244 238 241 239 236 245 254 255 246 120 36 6 5 357 348 351 348 336 332 337 344 341 316 320 325 319 318 318 309 307 306 303 300 291 293 310 310 318 334 321 287 235 216 215 217 218 222 231 229 224 224 223 221 222 222 221 219 218 219 216 246 249 245 238 236 238 237 237 238 243 241 234 230 228 228 233 234 227
351 357 357 352 346 345 352 357 349 317 294 276 265 263 261 264 265 258 250 239 353 347 357 351 342 338 329 327 327 328 335 337 329 322 316 313 315 312 306 304 304 304 301 289 288 297 284 278 302 310 282 239 233 224 229 246 246 230 222 219 220 222 221 221 217 212 215 220 217 214 233 244 245 244 239 234 233 235 248 267 259 241 231 226 225 229 231 226
348 353 358 359 352 349 355 358 346 332 325 310 286 276 274 277 271 245 228 326 294 291 325 316 306 313 317 323 325 321 320 323 325 313 301 305 309 306 303 303 304 305 299 283 270 265 263 262 267 272 263 263 273 273 268 295 282 243 224 215 212 217 221 221 216 212 214 217 216 220 232 242 249 250 241 229 228 240 265 279 260 236 226 222 220 221 221 218
347 350 354 360 4 0 358 356 345 333 330 332 317 293 283 273 262 236 215 250 307 289 286 287 290 304 317 324 321 319 317 316 317 309 297 299 304 305 302 301 306 302 284 269 259 253 258 256 253 270 277 278 288 282 264 274 279 259 245 231 214 213 220 221 218 217 218 216 217 226 231 238 249 252 244 232 232 249 274 274 237 221 221 220 217 215 215 213
347 350 352 357 3 2 0 0 356 335 325 346 355 329 324 302 290 287 240 244 330 317 291 293 298 300 308 316 315 314 313 314 317 315 309 304 303 305 303 303 307 296 272 264 259 253 257 255 250 273 289 288 291 283 264 264 274 269 266 259 234 222 220 224 222 219 220 222 226 231 231 235 247 250 244 242 247 262 278 262 210 208 217 216 214 214 212 210
346 349 353 358 2 1 2 6 6 345 318 334 343 318 319 317 321 324 301 297 314 320 311 306 306 305 307 314 313 311 312 311 309 309 309 307 303 301 301 303 302 292 279 266 255 249 249 250 251 279 297 293 283 269 257 258 269 273 273 277 268 239 219 220 224 220 222 228 233 237 236 239 248 251 249 256 261 269 275 239 190 195 210 212 212 212 209 209
344 347 350 357 5 3 3 8 10 3 334 318 315 307 307 312 312 306 308 308 303 312 324 311 309 317 321 322 315 310 310 304 297 299 301 301 296 292 294 293 291 292 287 265 244 235 234 240 248 288 305 297 252 219 231 241 256 276 281 278 266 235 213 211 221 219 220 226 232 237 240 242 249 253 255 262 263 266 264 212 181 189 204 209 210 207 206 209
342 345 347 355 5 7 8 12 10 2 349 326 316 310 303 307 305 299 309 314 302 310 318 310 322 330 324 321 315 307 305 298 292 292 291 290 287 283 282 283 283 288 282 258 236 227 230 237 245 298 315 298 203 217 236 231 236 261 299 279 232 215 208 208 213 215 216 221 228 233 238 243 247 249 253 256 256 260 251 200 182 190 200 205 208 205 203 205
341 345 347 351 2 7 9 14 10 357 349 341 324 310 304 305 300 299 309 312 280 296 301 304 328 328 316 315 314 308 304 298 293 289 283 281 279 273 272 272 274 277 270 247 232 225 228 237 251 308 319 272 253 301 254 226 231 253 3 45 147 176 198 202 206 210 211 217 224 229 235 241 244 244 247 251 250 248 236 202 189 195 202 206 213 211 205 200
Height
3145 3144 3143 3142 3140 3139 3138 3136 3135 3134 3134 3133 3132 3131 3130 3129 3128 3128 3127 3126 3126 3125 3125 3125 3125 3124 3124 3125 3125 3124 3124 3124 3123 3124 3124 3125 3125 3125 3126 3128 3130 3132 3133 3135 3136 3138 3140 3142 3143 3144 3146 3147 3148 3149 3149 3150 3151 3152 3152 3153 3153 3154 3154 3154 3155 3155 3155 3156 3156 3156 3157 3157 3158 3158 3159 3160 3161 3161 3161 3160 3162 3163 3165 3166 3169 3171 3170 3169
3144 3143 3142 3140 3139 3138 3136 3135 3134 3133 3132 3131 3130 3129 3128 3128 3127 3126 3126 3125 3124 3124 3123 3123 3123 3123 3123 3123 3123 3123 3123 3123 3123 3123 3123 3122 3123 3124 3125 3127 3128 3131 3132 3134 3136 3138 3140 3142 3142 3143 3144 3146 3148 3148 3148 3149 3150 3151 3152 3152 3153 3153 3154 3155 3155 3155 3156 3157 3157 3157 3157 3158 3159 3159 3159 3160 3160 3161 3161 3160 3161 3162 3164 3165 3167 3169 3170 3170
3143 3142 3140 3139 3138 3136 3135 3133 3132 3131 3130 3129 3128 3127 3127 3126 3125 3124 3124 3124 3123 3122 3122 3121 3121 3122 3121 3121 3121 3121 3121 3121 3121 3122 3121 3121 3122 3123 3125 3125 3127 3130 3132 3134 3136 3138 3140 3142 3142 3142 3144 3145 3147 3147 3148 3148 3149 3150 3151 3152 3153 3153 3154 3155 3155 3156 3156 3157 3157 3158 3158 3159 3159 3159 3160 3161 3161 3161 3161 3160 3161 3162 3163 3165 3166 3168 3169 3169
3142 3140 3139 3138 3136 3135 3133 3132 3131 3129 3128 3127 3126 3125 3124 3124 3123 3122 3122 3122 3121 3121 3120 3120 3119 3119 3120 3119 3120 3120 3120 3120 3120 3120 3120 3120 3121 3122 3124 3125 3127 3130 3131 3132 3134 3136 3138 3139 3140 3141 3143 3144 3145 3145 3146 3147 3148 3150 3150 3151 3152 3153 3154 3155 3155 3156 3157 3157 3157 3158 3158 3158 3159 3159 3160 3161 3161 3161 3161 3161 3162 3163 3164 3164 3165 3167 3168 3169
3141 3140 3138 3137 3135 3134 3132 3131 3129 3128 3127 3125 3124 3123 3122 3122 3121 3120 3120 3120 3120 3119 3118 3118 3118 3118 3118 3118 3118 3118 3118 3118 3118 3118 3119 3119 3120 3121 3122 3124 3126 3129 3129 3130 3131 3132 3134 3135 3137 3139 3140 3142 3143 3143 3145 3147 3148 3149 3150 3151 3152 3153 3154 3154 3155 3156 3157 3157 3158 3158 3158 3158 3158 3159 3160 3160 3160 3161 3161 3162 3163 3164 3165 3165 3165 3166 3168 3169
3141 3139 3137 3136 3134 3133 3131 3130 3128 3127 3125 3124 3122 3121 3120 3120 3119 3118 3118 3117 3117 3117 3116 3116 3116 3116 3116 3116 3116 3117 3117 3117 3117 3117 3118 3118 3118 3119 3120 3122 3124 3127 3127 3128 3129 3130 3131 3132 3133 3135 3138 3140 3141 3143 3146 3147 3147 3148 3149 3150 3151 3152 3153 3154 3155 3156 3157 3157 3158 3158 3158 3158 3158 3158 3159 3159 3160 3161 3161 3163 3164 3164 3165 3167 3167 3167 3168 3169
3140 3138 3137 3135 3134 3132 3130 3129 3127 3126 3124 3123 3121 3120 3118 3118 3117 3116 3116 3115 3115 3115 3114 3114 3114 3114 3114 3114 3114 3115 3116 3116 3115 3115 3117 3117 3117 3118 3118 3120 3122 3124 3125 3126 3127 3128 3129 3130 3131 3134 3136 3138 3140 3143 3145 3146 3147 3148 3148 3149 3150 3151 3152 3153 3155 3156 3157 3158 3158 3159 3158 3157 3157 3158 3158 3159 3160 3161 3162 3163 3165 3164 3165 3166 3167 3168 3169 3170
3139 3138 3136 3134 3133 3131 3129 3128 3126 3124 3123 3122 3120 3118 3117 3116 3115 3114 3114 3113 3113 3112 3112 3112 3112 3112 3112 3112 3112 3113 3114 3114 3113 3114 3116 3116 3116 3117 3117 3118 3119 3122 3123 3125 3126 3127 3128 3129 3130 3134 3135 3137 3139 3142 3144 3145 3145 3146 3148 3149 3149 3150 3151 3153 3154 3156 3157 3157 3158 3159 3158 3158 3157 3158 3158 3159 3160 3161 3162 3163 3164 3165 3165 3165 3167 3168 3170 3171
3138 3137 3135 3133 3132 3130 3128 3127 3125 3123 3122 3120 3119 3117 3116 3115 3113 3112 3112 3111 3110 3110 3109 3109 3109 3110 3110 3110 3110 3111 3111 3111 3112 3113 3114 3114 3115 3116 3116 3117 3118 3120 3122 3124 3126 3127 3127 3128 3131 3133 3134 3137 3139 3141 3143 3143 3143 3145 3148 3148 3149 3150 3151 3152 3153 3155 3156 3156 3157 3158 3158 3159 3159 3159 3159 3159 3160 3161 3161 3162 3164 3164 3164 3165 3166 3168 3169 3171
3137 3136 3134 3132 3131 3129 3127 3126 3124 3122 3121 3119 3118 3116 3114 3113 3112 3110 3110 3109 3108 3108 3107 3107 3107 3107 3108 3108 3108 3109 3108 3109 3110 3111 3111 3111 3112 3114 3115 3117 3118 3119 3121 3123 3124 3124 3126 3129 3132 3134 3136 3138 3139 3141 3141 3141 3143 3146 3147 3147 3148 3149 3149 3150 3151 3153 3155 3156 3157 3157 3158 3159 3159 3159 3158 3159 3160 3160 3161 3161 3163 3164 3164 3165 3166 3167 3169 3171
3136 3135 3133 3131 3129 3128 3126 3125 3123 3121 3120 3118 3117 3115 3113 3112 3111 3109 3108 3107 3106 3105 3105 3104 3104 3105 3105 3106 3106 3107 3106 3107 3108 3109 3109 3110 3111 3112 3114 3116 3117 3119 3120 3122 3123 3124 3127 3130 3133 3134 3135 3136 3137 3139 3140 3140 3143 3144 3145 3145 3145 3146 3147 3148 3149 3151 3154 3155 3155 3157 3158 3158 3158 3158 3157 3158 3159 3159 3160 3161 3162 3163 3164 3165 3166 3167 3168 3170
3135 3134 3132 3130 3128 3127 3125 3124 3122 3120 3119 3117 3116 3114 3112 3111 3109 3108 3106 3105 3104 3103 3103 3102 3102 3102 3102 3104 3105 3104 3104 3105 3106 3107 3108 3109 3110 3110 3112 3115 3117 3118 3120 3121 3123 3125 3127 3128 3130 3131 3132 3134 3136 3138 3139 3140 3142 3143 3143 3143 3143 3144 3144 3145 3147 3149 3152 3153 3154 3156 3157 3156 3156 3156 3156 3157 3158 3159 3160 3160 3161 3162 3163 3164 3165 3166 3167 3169
3135 3133 3131 3129 3127 3125 3124 3123 3121 3119 3117 3116 3115 3113 3111 3109 3108 3107 3105 3104 3102 3101 3101 3100 3099 3099 3099 3102 3102 3101 3101 3103 3104 3106 3107 3108 3109 3109 3110 3112 3115 3117 3119 3121 3123 3125 3126 3127 3128 3129 3131 3133 3134 3136 3137 3138 3140 3140 3141 3141 3141 3142 3141 3142 3145 3147 3149 3151 3153 3154 3154 3153 3154 3155 3156 3156 3157 3158 3159 3159 3160 3161 3162 3163 3164 3165 3166 3168
3134 3132 3130 3128 3126 3124 3122 3121 3120 3118 3116 3115 3113 3111 3109 3108 3106 3105 3104 3102 3101 3099 3098 3098 3097 3096 3096 3099 3100 3098 3100 3101 3103 3105 3105 3107 3108 3108 3109 3110 3112 3113 3116 3119 3122 3123 3124 3125 3126 3128 3130 3131 3133 3135 3135 3136 3137 3138 3140 3140 3139 3140 3138 3140 3144 3146 3147 3149 3152 3153 3151 3151 3153 3154 3154 3155 3155 3157 3157 3158 3159 3159 3160 3162 3163 3164 3165 3167
3132 3130 3128 3126 3124 3122 3120 3119 3118 3116 3114 3113 3112 3109 3107 3106 3105 3104 3103 3101 3099 3097 3096 3095 3094 3093 3094 3096 3096 3096 3098 3100 3101 3102 3102 3105 3106 3107 3109 3110 3111 3112 3114 3116 3118 3121 3122 3123 3123 3124 3126 3129 3131 3132 3132 3133 3134 3135 3137 3136 3137 3138 3137 3139 3142 3144 3145 3146 3149 3151 3148 3149 3152 3152 3152 3153 3154 3155 3156 3157 3158 3158 3159 3160 3161 3163 3164 3166
3131 3129 3127 3124 3122 3120 3118 3116 3115 3114 3112 3111 3109 3107 3105 3104 3103 3102 3101 3099 3097 3095 3093 3092 3091 3091 3091 3092 3092 3093 3095 3095 3097 3097 3099 3102 3105 3107 3108 3109 3110 3110 3112 3114 3116 3118 3119 3120 3121 3123 3125 3127 3128 3129 3131 3131 3131 3132 3133 3133 3135 3136 3137 3138 3139 3141 3143 3145 3146 3147 3146 3147 3150 3150 3151 3152 3153 3154 3155 3156 3157 3157 3158 3159 3160 3162 3163 3164
3129 3127 3125 3123 3119 3117 3116 3114 3113 3111 3110 3109 3107 3104 3103 3102 3101 3101 3099 3097 3095 3092 3090 3089 3089 3089 3090 3089 3089 3090 3090 3091 3092 3093 3096 3099 3101 3104 3105 3106 3107 3108 3110 3111 3112 3114 3116 3117 3119 3120 3122 3124 3126 3128 3128 3125 3125 3127 3129 3131 3133 3135 3136 3136 3137 3140 3142 3142 3143 3145 3145 3145 3148 3148 3148 3150 3151 3152 3153 3154 3155 3156 3157 3158 3159 3160 3162 3163
3128 3126 3123 3121 3117 3115 3114 3111 3110 3108 3107 3106 3104 3102 3101 3099 3099 3098 3098 3096 3093 3089 3087 3087 3086 3086 3087 3086 3087 3086 3085 3086 3087 3089 3093 3096 3098 3100 3102 3104 3106 3106 3107 3108 3109 3110 3112 3114 3116 3118 3120 3120 3120 3120 3118 3116 3120 3124 3127 3128 3131 3132 3133 3134 3135 3138 3139 3140 3141 3142 3143 3144 3146 3146 3146 3148 3149 3150 3152 3153 3154 3155 3156 3157 3157 3158 3160 3161
3126 3124 3122 3119 3116 3113 3112 3109 3107 3106 3105 3104 3102 3100 3098 3097 3096 3097 3097 3095 3090 3087 3085 3084 3083 3084 3084 3084 3083 3081 3081 3082 3084 3086 3090 3093 3096 3098 3100 3102 3103 3103 3103 3104 3105 3107 3108 3110 3112 3113 3111 3109 3109 3110 3111 3114 3121 3125 3126 3128 3129 3130 3131 3132 3134 3136 3138 3138 3139 3140 3140 3142 3145 3144 3145 3146 3148 3149 3150 3152 3153 3154 3155 3155 3156 3157 3158 3160
3124 3122 3120 3118 3114 3111 3110 3108 3105 3103 3103 3101 3100 3098 3096 3095 3095 3095 3097 3094 3088 3086 3084 3083 3082 3082 3081 3080 3079 3078 3079 3081 3082 3084 3086 3090 3093 3095 3098 3098 3099 3100 3100 3101 3103 3105 3106 3106 3104 3100 3097 3099 3105 3111 3113 3118 3122 3124 3126 3127 3128 3129 3129 3130 3133 3135 3138 3138 3137 3138 3139 3141 3142 3143 3143 3145 3146 3147 3148 3149 3150 3151 3153 3154 3154 3155 3156 3158
3122 3120 3118 3116 3113 3110 3108 3106 3104 3102 3101 3099 3097 3096 3094 3093 3092 3092 3093 3092 3088 3085 3084 3082 3081 3080 3078 3077 3075 3075 3077 3079 3081 3083 3084 3087 3089 3091 3094 3095 3095 3095 3096 3100 3103 3104 3104 3101 3096 3093 3097 3104 3110 3113 3116 3118 3121 3122 3124 3125 3126 3127 3126 3129 3132 3134 3136 3137 3136 3138 3139 3139 3140 3141 3142 3143 3144 3144 3145 3146 3147 3148 3150 3152 3153 3154 3155 3157
3120 3118 3116 3115 3112 3109 3107 3105 3103 3101 3099 3098 3096 3094 3093 3091 3091 3090 3089 3089 3087 3085 3083 3082 3081 3079 3077 3075 3073 3072 3074 3076 3081 3083 3083 3085 3086 3088 3090 3091 3091 3092 3096 3099 3100 3101 3100 3094 3092 3097 3103 3108 3111 3113 3116 3118 3120 3121 3122 3124 3124 3124 3125 3128 3130 3132 3134 3135 3135 3137 3138 3137 3138 3139 3140 3140 3141 3141 3143 3144 3145 3146 3148 3150 3151 3152 3154 3156
3119 3117 3114 3113 3111 3108 3106 3104 3102 3100 3098 3097 3095 3094 3092 3091 3089 3089 3088 3087 3086 3084 3082 3081 3080 3078 3076 3074 3071 3071 3072 3073 3079 3082 3081 3082 3084 3086 3089 3088 3089 3092 3094 3094 3094 3095 3093 3089 3093 3101 3105 3107 3110 3113 3115 3117 3118 3118 3120 3121 3120 3121 3125 3126 3127 3130 3132 3133 3134 3135 3136 3135 3136 3137 3138 3138 3139 3140 3142 3143 3145 3146 3146 3147 3149 3150 3152 3153
3117 3115 3113 3111 3109 3107 3105 3103 3101 3099 3097 3095 3094 3092 3091 3089 3088 3087 3086 3086 3085 3083 3080 3080 3080 3077 3076 3074 3071 3070 3071 3072 3076 3080 3080 3080 3082 3084 3085 3087 3088 3089 3089 3091 3092 3091 3089 3090 3095 3101 3103 3106 3109 3111 3113 3115 3115 3115 3117 3117 3116 3120 3123 3123 3126 3129 3130 3130 3131 3133 3134 3133 3133 3134 3134 3135 3137 3139 3140 3141 3143 3144 3145 3147 3148 3150 3151 3152
3116 3114 3111 3109 3108 3105 3103 3101 3099 3098 3096 3094 3093 3091 3090 3088 3086 3086 3085 3084 3083 3081 3079 3079 3078 3077 3075 3074 3071 3070 3070 3071 3073 3076 3076 3077 3079 3080 3082 3084 3085 3085 3086 3089 3091 3090 3090 3093 3096 3099 3101 3104 3106 3108 3110 3112 3113 3114 3113 3112 3114 3119 3121 3123 3125 3128 3128 3128 3128 3132 3131 3129 3130 3130 3130 3132 3134 3135 3137 3138 3139 3140 3143 3145 3147 3148 3150 3151
3114 3112 3109 3107 3105 3103 3100 3099 3098 3096 3095 3093 3092 3090 3089 3087 3086 3085 3084 3083 3081 3080 3079 3078 3077 3076 3074 3073 3071 3070 3070 3069 3070 3071 3072 3072 3074 3076 3079 3080 3080 3081 3084 3088 3090 3087 3088 3092 3096 3097 3099 3102 3104 3105 3107 3110 3113 3110 3107 3110 3115 3118 3120 3121 3125 3127 3127 3125 3126 3129 3129 3127 3127 3126 3126 3128 3130 3131 3133 3134 3135 3137 3139 3141 3143 3145 3147 3149
3112 3110 3108 3105 3103 3101 3098 3096 3095 3093 3092 3091 3090 3089 3088 3086 3085 3084 3083 3081 3079 3078 3077 3076 3075 3075 3073 3072 3070 3069 3069 3069 3069 3069 3069 3069 3069 3072 3073 3075 3078 3079 3083 3088 3085 3081 3084 3090 3092 3094 3097 3099 3100 3100 3102 3108 3110 3103 3103 3111 3115 3116 3118 3120 3124 3126 3125 3124 3124 3125 3127 3125 3122 3121 3122 3125 3126 3127 3129 3130 3132 3134 3136 3138 3140 3142 3144 3146
3111 3108 3106 3104 3101 3099 3096 3094 3092 3091 3089 3088 3087 3087 3086 3085 3084 3083 3083 3082 3079 3076 3076 3075 3074 3073 3073 3072 3070 3070 3070 3069 3069 3068 3067 3068 3068 3068 3068 3071 3076 3078 3082 3084 3078 3076 3083 3085 3086 3091 3094 3093 3093 3094 3099 3105 3104 3099 3105 3112 3114 3116 3117 3119 3123 3124 3124 3125 3120 3119 3124 3124 3118 3117 3120 3122 3122 3123 3125 3126 3128 3129 3132 3134 3136 3139 3142 3144
3109 3106 3104 3102 3100 3097 3094 3092 3090 3088 3087 3086 3085 3085 3084 3084 3083 3082 3082 3081 3077 3075 3074 3074 3073 3071 3070 3070 3070 3070 3069 3068 3068 3067 3067 3066 3065 3066 3066 3069 3074 3077 3080 3080 3077 3079 3082 3082 3086 3091 3090 3089 3091 3095 3099 3103 3101 3101 3108 3112 3114 3116 3116 3119 3122 3122 3124 3123 3116 3114 3120 3121 3116 3114 3116 3117 3117 3118 3120 3123 3124 3125 3127 3130 3133 3136 3139 3142
3107 3104 3102 3101 3098 3096 3093 3091 3089 3086 3085 3084 3083 3083 3082 3082 3081 3081 3081 3079 3075 3074 3073 3072 3072 3070 3068 3067 3068 3068 3068 3067 3067 3066 3066 3065 3064 3064 3065 3070 3074 3075 3077 3077 3077 3080 3082 3084 3087 3087 3086 3089 3093 3096 3099 3100 3101 3105 3109 3111 3114 3114 3115 3118 3119 3121 3122 3116 3110 3111 3115 3119 3115 3110 3111 3111 3111 3114 3117 3119 3120 3122 3125 3128 3131 3134 3136 3139
3105 3103 3101 3099 3096 3094 3091 3090 3088 3085 3083 3082 3081 3081 3080 3080 3080 3080 3079 3076 3074 3073 3071 3070 3070 3069 3067 3065 3066 3066 3066 3065 3066 3065 3064 3064 3063 3063 3066 3070 3071 3071 3072 3072 3074 3077 3080 3083 3083 3083 3085 3090 3093 3095 3097 3099 3102 3105 3108 3110 3113 3112 3113 3115 3115 3118 3115 3108 3107 3109 3112 3115 3110 3104 3107 3108 3109 3112 3113 3114 3116 3119 3121 3124 3127 3131 3134 3136
3103 3101 3099 3096 3094 3091 3089 3087 3086 3084 3082 3080 3079 3079 3079 3078 3078 3077 3075 3074 3074 3073 3070 3070 3069 3068 3067 3066 3064 3064 3064 3064 3065 3065 3065 3064 3063 3063 3067 3069 3068 3067 3066 3066 3069 3073 3075 3077 3079 3082 3084 3087 3090 3092 3094 3097 3099 3102 3105 3108 3110 3110 3111 3110 3110 3109 3107 3105 3106 3107 3110 3108 3101 3099 3104 3106 3108 3110 3110 3111 3114 3115 3117 3120 3123 3127 3131 3133
3101 3099 3097 3094 3092 3090 3088 3086 3084 3082 3081 3079 3077 3076 3077 3077 3076 3075 3074 3074 3074 3073 3071 3070 3069 3069 3068 3065 3063 3063 3063 3062 3063 3065 3065 3066 3065 3064 3066 3067 3066 3065 3063 3064 3068 3069 3070 3073 3076 3079 3080 3082 3084 3085 3088 3091 3094 3097 3100 3102 3104 3105 3107 3106 3105 3104 3103 3104 3104 3106 3107 3100 3093 3095 3099 3102 3104 3106 3107 3109 3111 3113 3115 3117 3120 3124 3128 3130
3098 3096 3095 3093 3091 3089 3087 3084 3082 3080 3079 3078 3076 3075 3075 3076 3075 3074 3074 3074 3074 3072 3071 3070 3069 3069 3068 3066 3064 3062 3062 3062 3062 3063 3064 3065 3065 3064 3064 3063 3063 3063 3062 3064 3065 3066 3066 3066 3067 3071 3073 3076 3079 3080 3083 3087 3091 3092 3094 3099 3098 3096 3098 3100 3101 3101 3101 3103 3103 3103 3100 3091 3088 3090 3093 3098 3102 3103 3105 3106 3109 3112 3113 3116 3118 3121 3124 3127
3096 3093 3093 3092 3090 3087 3085 3082 3080 3078 3078 3077 3076 3075 3075 3076 3075 3075 3074 3073 3073 3072 3071 3070 3069 3068 3067 3067 3065 3063 3062 3062 3061 3062 3063 3064 3064 3064 3064 3063 3062 3062 3062 3064 3064 3063 3061 3059 3062 3067 3070 3073 3075 3076 3081 3085 3087 3088 3091 3095 3091 3088 3092 3097 3098 3098 3099 3100 3098 3094 3089 3085 3086 3088 3092 3097 3099 3100 3102 3103 3106 3109 3111 3114 3116 3118 3121 3124
3094 3091 3091 3090 3088 3086 3084 3081 3079 3078 3077 3076 3075 3075 3075 3076 3075 3075 3074 3073 3072 3071 3070 3070 3069 3068 3067 3066 3065 3063 3062 3062 3061 3061 3062 3064 3064 3065 3065 3064 3063 3063 3064 3065 3065 3063 3060 3055 3058 3064 3066 3069 3072 3073 3077 3080 3080 3083 3086 3084 3082 3087 3095 3098 3097 3096 3097 3096 3091 3086 3083 3084 3087 3087 3089 3094 3095 3097 3099 3100 3103 3106 3109 3111 3112 3114 3117 3120
3092 3088 3087 3087 3085 3084 3082 3080 3078 3077 3076 3076 3075 3075 3075 3075 3074 3074 3073 3072 3072 3070 3069 3069 3068 3068 3067 3066 3065 3063 3061 3061 3061 3060 3062 3063 3064 3064 3064 3064 3065 3064 3065 3067 3065 3065 3062 3053 3052 3058 3061 3064 3070 3073 3075 3076 3077 3080 3079 3078 3083 3092 3096 3095 3095 3094 3094 3091 3086 3082 3082 3083 3084 3083 3085 3089 3091 3093 3096 3098 3101 3104 3106 3108 3109 3112 3114 3117
3090 3085 3083 3084 3082 3081 3080 3078 3077 3076 3076 3075 3075 3075 3075 3075 3074 3073 3072 3071 3071 3069 3068 3068 3068 3068 3067 3066 3065 3063 3062 3061 3061 3060 3061 3062 3063 3063 3062 3063 3064 3063 3064 3066 3066 3066 3063 3054 3050 3055 3058 3060 3065 3070 3072 3074 3076 3077 3076 3078 3084 3088 3086 3088 3090 3088 3089 3089 3084 3081 3080 3079 3078 3078 3081 3085 3088 3091 3093 3096 3099 3101 3103 3104 3107 3110 3112 3114
3089 3084 3082 3082 3080 3078 3076 3075 3074 3074 3074 3074 3074 3074 3074 3074 3073 3072 3070 3070 3069 3068 3067 3067 3067 3067 3066 3066 3065 3063 3062 3061 3060 3060 3061 3061 3062 3062 3061 3062 3062 3062 3063 3065 3065 3064 3063 3059 3052 3050 3054 3057 3059 3062 3065 3067 3071 3074 3076 3079 3081 3081 3079 3081 3083 3082 3085 3086 3083 3082 3079 3074 3074 3076 3079 3082 3085 3089 3091 3093 3096 3098 3100 3101 3104 3107 3109 3111
3088 3083 3081 3081 3079 3076 3073 3071 3071 3072 3072 3072 3071 3071 3072 3072 3071 3069 3069 3068 3068 3067 3066 3066 3066 3066 3065 3065 3064 3063 3062 3062 3061 3060 3061 3061 3061 3061 3060 3060 3060 3060 3061 3062 3064 3062 3062 3062 3055 3048 3050 3053 3053 3056 3059 3062 3066 3068 3070 3072 3074 3075 3076 3079 3080 3080 3082 3082 3082 3082 3076 3070 3072 3076 3078 3080 3083 3087 3089 3091 3094 3096 3098 3099 3102 3104 3107 3109
3086 3080 3078 3079 3077 3074 3071 3069 3069 3070 3070 3070 3069 3069 3069 3069 3068 3067 3067 3067 3067 3066 3066 3065 3064 3065 3064 3064 3064 3062 3061 3062 3061 3060 3060 3060 3060 3059 3058 3058 3058 3057 3058 3060 3062 3062 3060 3060 3056 3049 3047 3047 3049 3053 3057 3059 3063 3064 3065 3067 3068 3070 3073 3077 3077 3076 3078 3078 3078 3078 3072 3067 3071 3075 3076 3079 3082 3084 3087 3089 3091 3094 3096 3097 3099 3102 3105 3107
3085 3079 3075 3074 3074 3072 3070 3068 3068 3068 3068 3069 3068 3067 3068 3067 3065 3065 3065 3065 3065 3065 3064 3064 3063 3063 3063 3063 3063 3062 3061 3061 3060 3059 3059 3059 3059 3059 3057 3057 3057 3056 3057 3058 3059 3061 3060 3059 3056 3049 3045 3044 3046 3049 3053 3055 3058 3060 3062 3064 3067 3069 3070 3071 3070 3070 3074 3075 3075 3076 3070 3063 3067 3073 3074 3077 3080 3082 3085 3087 3089 3091 3093 3095 3096 3099 3102 3105
3084 3080 3075 3072 3070 3069 3068 3067 3068 3067 3067 3067 3067 3066 3066 3065 3064 3064 3063 3063 3064 3063 3063 3063 3062 3062 3062 3062 3062 3061 3060 3060 3059 3058 3057 3057 3057 3057 3056 3056 3055 3055 3056 3057 3058 3059 3059 3058 3056 3049 3044 3043 3045 3047 3050 3054 3057 3057 3058 3061 3064 3065 3065 3066 3067 3068 3071 3072 3072 3075 3069 3059 3062 3070 3072 3074 3077 3078 3081 3083 3085 3088 3090 3092 3094 3096 3099 3103
3083 3080 3075 3071 3068 3066 3066 3066 3066 3066 3066 3066 3066 3065 3065 3064 3063 3063 3062 3062 3062 3062 3062 3062 3061 3060 3061 3061 3060 3060 3060 3059 3058 3056 3055 3055 3054 3055 3055 3054 3054 3053 3055 3056 3057 3058 3058 3058 3057 3053 3049 3046 3045 3047 3049 3051 3052 3053 3055 3058 3060 3062 3065 3065 3066 3068 3068 3066 3068 3073 3067 3056 3058 3067 3069 3071 3073 3074 3076 3079 3081 3082 3084 3088 3090 3092 3095 3100
3080 3079 3076 3071 3067 3064 3063 3064 3064 3065 3065 3065 3064 3064 3064 3063 3062 3062 3062 3061 3061 3061 3061 3061 3060 3059 3060 3060 3059 3059 3059 3058 3056 3054 3053 3053 3053 3053 3053 3053 3052 3052 3053 3054 3055 3056 3057 3057 3057 3057 3056 3049 3043 3044 3046 3047 3048 3049 3051 3053 3055 3059 3062 3063 3064 3065 3062 3062 3065 3066 3061 3056 3058 3063 3066 3068 3070 3070 3072 3074 3075 3076 3078 3082 3085 3087 3091 3096
3077 3076 3075 3072 3069 3065 3063 3062 3063 3063 3063 3063 3063 3062 3062 3061 3061 3061 3061 3061 3060 3060 3060 3059 3059 3058 3058 3058 3058 3058 3057 3056 3055 3053 3052 3051 3051 3051 3051 3051 3050 3050 3051 3052 3053 3054 3054 3055 3055 3056 3054 3049 3043 3043 3045 3046 3045 3045 3046 3048 3050 3053 3056 3059 3060 3058 3058 3061 3061 3059 3059 3060 3059 3060 3062 3064 3066 3067 3067 3069 3070 3071 3073 3076 3079 3083 3087 3092
3077 3074 3072 3070 3069 3067 3065 3063 3063 3062 3062 3062 3061 3061 3060 3060 3060 3060 3059 3059 3059 3059 3059 3058 3057 3057 3057 3057 3056 3055 3055 3054 3053 3052 3051 3050 3050 3049 3049 3049 3049 3048 3048 3049 3050 3051 3052 3051 3052 3052 3050 3047 3045 3043 3044 3045 3044 3043 3043 3045 3046 3048 3051 3053 3053 3052 3056 3059 3056 3056 3062 3062 3058 3057 3059 3060 3063 3064 3064 3065 3067 3069 3070 3072 3076 3080 3084 3089
3077 3074 3071 3069 3068 3067 3065 3064 3063 3062 3061 3061 3060 3060 3059 3059 3059 3058 3058 3058 3058 3057 3057 3056 3056 3056 3056 3055 3054 3053 3052 3051 3050 3050 3049 3049 3048 3047 3047 3047 3047 3046 3046 3047 3047 3049 3049 3048 3049 3049 3046 3044 3044 3042 3042 3044 3043 3042 3042 3042 3043 3045 3047 3048 3048 3051 3055 3055 3053 3057 3062 3060 3056 3055 3056 3057 3060 3063 3062 3063 3066 3068 3069 3071 3074 3077 3081 3085
3076 3074 3072 3070 3068 3066 3065 3064 3063 3062 3061 3060 3060 3059 3059 3058 3058 3057 3057 3057 3057 3056 3055 3055 3054 3054 3054 3053 3052 3051 3050 3048 3047 3047 3047 3047 3046 3045 3045 3045 3045 3044 3044 3044 3045 3046 3047 3046 3046 3046 3043 3040 3041 3041 3042 3042 3041 3040 3040 3040 3039 3040 3041 3044 3047 3050 3052 3052 3054 3058 3059 3057 3055 3055 3055 3057 3060 3060 3060 3061 3063 3066 3068 3070 3072 3075 3078 3082
3075 3073 3071 3070 3068 3067 3065 3063 3063 3062 3061 3060 3059 3059 3058 3057 3057 3057 3056 3055 3055 3055 3054 3053 3052 3052 3051 3051 3050 3048 3048 3047 3045 3044 3044 3044 3043 3043 3042 3042 3042 3042 3041 3042 3043 3044 3044 3043 3044 3044 3040 3037 3038 3039 3039 3039 3039 3039 3039 3037 3035 3035 3038 3042 3046 3049 3050 3052 3054 3056 3056 3054 3054 3055 3056 3057 3058 3058 3058 3059 3061 3065 3067 3069 3071 3073 3076 3079
3074 3072 3070 3069 3067 3065 3064 3063 3062 3061 3060 3059 3059 3058 3057 3057 3056 3055 3055 3054 3054 3053 3053 3052 3051 3049 3049 3048 3047 3046 3045 3044 3043 3042 3041 3041 3040 3040 3040 3039 3038 3039 3039 3039 3040 3041 3041 3041 3042 3042 3038 3035 3035 3036 3035 3036 3038 3038 3036 3033 3032 3033 3036 3040 3043 3045 3046 3049 3052 3053 3052 3051 3053 3055 3056 3055 3056 3056 3057 3058 3061 3064 3067 3068 3070 3072 3075 3078
3071 3070 3068 3067 3065 3064 3063 3062 3061 3060 3060 3058 3058 3057 3056 3056 3055 3054 3054 3053 3053 3052 3052 3051 3049 3048 3047 3046 3045 3044 3042 3041 3040 3039 3038 3038 3037 3036 3036 3036 3035 3035 3036 3037 3037 3038 3039 3040 3041 3041 3037 3033 3033 3033 3033 3035 3037 3036 3034 3031 3029 3030 3034 3037 3040 3041 3043 3046 3048 3049 3049 3050 3052 3054 3054 3054 3055 3055 3056 3058 3060 3063 3066 3068 3070 3072 3074 3077